�������l�o���
Date,Time,MP-1(��Sv/h),MP-2(��Sv/h),MP-3(��Sv/h),MP-4(��Sv/h),MP-5(��Sv/h),MP-6(��Sv/h),MP-7(��Sv/h),MP-8(��Sv/h),����,����(m/s),���J
2019/01/01,00:00,0.779,1.166,0.821,1.498,1.062,0.451,0.798,0.756,���쐼,2.5,��
2019/01/01,00:10,0.778,1.166,0.820,1.497,1.061,0.449,0.797,0.758,���쐼,2.6,��
2019/01/01,00:20,0.780,1.166,0.820,1.496,1.062,0.451,0.797,0.756,���쐼,2.5,��
2019/01/01,00:30,0.780,1.165,0.819,1.496,1.060,0.450,0.797,0.756,���k��,3.7,��
2019/01/01,00:40,0.779,1.168,0.820,1.498,1.060,0.448,0.797,0.756,��,4.2,��
2019/01/01,00:50,0.779,1.167,0.817,1.499,1.063,0.450,0.797,0.756,��,3.7,��
2019/01/01,01:00,0.780,1.167,0.820,1.497,1.060,0.450,0.797,0.754,��,5.0,��
2019/01/01,01:10,0.780,1.165,0.819,1.499,1.061,0.451,0.797,0.757,���k��,6.6,��
2019/01/01,01:20,0.780,1.167,0.819,1.498,1.060,0.451,0.798,0.757,���k��,5.3,��
2019/01/01,01:30,0.778,1.168,0.819,1.497,1.059,0.450,0.797,0.758,�k��,2.2,��
2019/01/01,01:40,0.779,1.168,0.820,1.497,1.059,0.451,0.797,0.758,���쐼,2.0,��
2019/01/01,01:50,0.779,1.168,0.818,1.498,1.062,0.450,0.797,0.755,���쐼,1.1,��
2019/01/01,02:00,0.780,1.166,0.818,1.497,1.061,0.452,0.796,0.755,�k�k��,1.2,��
2019/01/01,02:10,0.783,1.168,0.818,1.497,1.062,0.450,0.797,0.758,�k�k��,1.7,��
2019/01/01,02:20,0.778,1.166,0.820,1.499,1.061,0.450,0.796,0.756,-,CALM,��
2019/01/01,02:30,0.779,1.168,0.819,1.498,1.062,0.449,0.797,0.755,���쓌,1.2,��
2019/01/01,02:40,0.780,1.165,0.820,1.499,1.061,0.451,0.798,0.756,��쓌,2.5,��
2019/01/01,02:50,0.779,1.169,0.820,1.496,1.060,0.450,0.797,0.756,��쐼,1.4,��
2019/01/01,03:00,0.779,1.166,0.820,1.497,1.059,0.450,0.796,0.757,��,1.2,��
2019/01/01,03:10,0.779,1.166,0.819,1.499,1.059,0.450,0.796,0.755,��,0.9,��
2019/01/01,03:20,0.782,1.165,0.818,1.497,1.061,0.449,0.797,0.755,��,0.9,��
2019/01/01,03:30,0.780,1.164,0.819,1.498,1.060,0.450,0.796,0.755,�쐼,1.5,��
2019/01/01,03:40,0.778,1.164,0.818,1.497,1.058,0.451,0.797,0.757,���쐼,1.4,��
2019/01/01,03:50,0.779,1.164,0.817,1.496,1.059,0.450,0.796,0.755,��,1.2,��
2019/01/01,04:00,0.782,1.163,0.819,1.496,1.058,0.450,0.796,0.755,��,1.2,��
2019/01/01,04:10,0.779,1.167,0.819,1.497,1.061,0.450,0.797,0.756,���쐼,1.7,��
2019/01/01,04:20,0.779,1.166,0.818,1.496,1.059,0.450,0.796,0.756,�쐼,2.0,��
2019/01/01,04:30,0.779,1.165,0.818,1.497,1.060,0.450,0.796,0.757,�쐼,1.8,��
2019/01/01,04:40,0.780,1.164,0.819,1.498,1.062,0.451,0.797,0.756,���쐼,1.5,��
2019/01/01,04:50,0.779,1.165,0.820,1.498,1.062,0.451,0.797,0.755,���k��,1.2,��
2019/01/01,05:00,0.779,1.165,0.819,1.498,1.063,0.451,0.797,0.756,��쐼,1.4,��
2019/01/01,05:10,0.780,1.164,0.818,1.497,1.061,0.450,0.796,0.756,��쓌,2.0,��
2019/01/01,05:20,0.780,1.165,0.819,1.499,1.060,0.451,0.795,0.757,��쓌,2.5,��
2019/01/01,05:30,0.779,1.167,0.819,1.497,1.059,0.450,0.797,0.756,��,3.3,��
2019/01/01,05:40,0.780,1.164,0.819,1.494,1.061,0.450,0.797,0.756,�쐼,4.8,��
2019/01/01,05:50,0.778,1.165,0.818,1.499,1.060,0.452,0.795,0.756,���쐼,4.4,��
2019/01/01,06:00,0.779,1.164,0.818,1.498,1.061,0.451,0.795,0.756,�쐼,4.9,��
2019/01/01,06:10,0.780,1.167,0.820,1.497,1.058,0.450,0.797,0.755,���쐼,4.2,��
2019/01/01,06:20,0.779,1.165,0.819,1.498,1.060,0.451,0.798,0.755,��,4.6,��
2019/01/01,06:30,0.779,1.163,0.819,1.498,1.060,0.451,0.796,0.756,���쐼,3.0,��
2019/01/01,06:40,0.778,1.166,0.819,1.496,1.061,0.450,0.795,0.756,�쐼,2.8,��
2019/01/01,06:50,0.779,1.165,0.818,1.496,1.062,0.451,0.796,0.756,�쐼,3.3,��
2019/01/01,07:00,0.780,1.166,0.818,1.497,1.060,0.451,0.797,0.755,���쐼,3.7,��
2019/01/01,07:10,0.779,1.166,0.820,1.497,1.058,0.450,0.795,0.756,���쐼,4.3,��
2019/01/01,07:20,0.779,1.168,0.817,1.498,1.059,0.449,0.797,0.756,��,4.8,��
2019/01/01,07:30,0.779,1.164,0.818,1.498,1.058,0.451,0.796,0.757,���쐼,4.8,��
2019/01/01,07:40,0.777,1.166,0.819,1.499,1.059,0.451,0.797,0.754,���쐼,6.0,��
2019/01/01,07:50,0.778,1.164,0.820,1.498,1.060,0.449,0.797,0.757,���쐼,5.5,��
2019/01/01,08:00,0.780,1.166,0.820,1.499,1.059,0.451,0.795,0.756,���쐼,5.2,��
2019/01/01,08:10,0.778,1.166,0.819,1.500,1.061,0.453,0.795,0.756,���쐼,4.7,��
2019/01/01,08:20,0.780,1.166,0.819,1.495,1.062,0.452,0.795,0.758,��쐼,4.0,��
2019/01/01,08:30,0.778,1.167,0.819,1.499,1.060,0.450,0.796,0.756,��쐼,3.9,��
2019/01/01,08:40,0.780,1.168,0.820,1.501,1.060,0.451,0.798,0.756,��,4.0,��
2019/01/01,08:50,0.779,1.167,0.820,1.500,1.060,0.451,0.797,0.758,��쓌,3.9,��
2019/01/01,09:00,0.780,1.166,0.820,1.497,1.060,0.452,0.797,0.756,��,2.6,��
2019/01/01,09:10,0.781,1.168,0.819,1.500,1.062,0.451,0.800,0.757,��쐼,2.6,��
2019/01/01,09:20,0.782,1.169,0.821,1.498,1.061,0.452,0.799,0.757,��,3.3,��
2019/01/01,09:30,0.781,1.169,0.822,1.501,1.061,0.452,0.799,0.757,��,2.2,��
2019/01/01,09:40,0.782,1.170,0.822,1.498,1.060,0.453,0.799,0.756,��,1.8,��
2019/01/01,09:50,0.785,1.169,0.820,1.501,1.060,0.453,0.801,0.758,��,1.5,��
2019/01/01,10:00,0.782,1.170,0.820,1.498,1.061,0.453,0.799,0.757,��쐼,1.4,��
2019/01/01,10:10,0.783,1.169,0.821,1.498,1.060,0.454,0.797,0.756,�쐼,2.8,��
2019/01/01,10:20,0.783,1.167,0.823,1.502,1.062,0.451,0.797,0.758,�쐼,3.4,��
2019/01/01,10:30,0.782,1.168,0.820,1.497,1.062,0.453,0.798,0.758,��쐼,2.3,��
2019/01/01,10:40,0.783,1.170,0.823,1.498,1.061,0.453,0.799,0.756,�k��,3.6,��
2019/01/01,10:50,0.783,1.167,0.821,1.499,1.063,0.454,0.800,0.757,�k��,4.4,��
2019/01/01,11:00,0.782,1.168,0.822,1.498,1.064,0.453,0.797,0.757,��,4.2,��
2019/01/01,11:10,0.783,1.167,0.823,1.501,1.064,0.453,0.798,0.757,��,6.6,��
2019/01/01,11:20,0.782,1.167,0.823,1.500,1.067,0.452,0.798,0.759,��,6.3,��
2019/01/01,11:30,0.784,1.169,0.822,1.503,1.064,0.453,0.799,0.758,��,8.2,��
2019/01/01,11:40,0.781,1.168,0.823,1.500,1.066,0.453,0.799,0.757,��,9.5,��
2019/01/01,11:50,0.784,1.167,0.824,1.497,1.065,0.454,0.800,0.759,���쐼,6.3,��
2019/01/01,12:00,0.783,1.167,0.822,1.499,1.066,0.453,0.800,0.759,��,5.7,��
2019/01/01,12:10,0.784,1.166,0.822,1.500,1.066,0.453,0.799,0.757,��,4.9,��
2019/01/01,12:20,0.786,1.170,0.824,1.502,1.064,0.454,0.800,0.760,��,5.7,��
2019/01/01,12:30,0.784,1.171,0.826,1.500,1.065,0.453,0.799,0.758,���k��,9.2,��
2019/01/01,12:40,0.784,1.169,0.822,1.503,1.066,0.453,0.800,0.757,��,10.9,��
2019/01/01,12:50,0.784,1.169,0.825,1.502,1.065,0.455,0.802,0.758,��,10.5,��
2019/01/01,13:00,0.784,1.171,0.825,1.502,1.065,0.454,0.801,0.759,��,8.7,��
2019/01/01,13:10,0.786,1.169,0.824,1.504,1.067,0.453,0.803,0.759,��,9.3,��
2019/01/01,13:20,0.784,1.169,0.822,1.502,1.066,0.454,0.802,0.759,��,8.7,��
2019/01/01,13:30,0.784,1.169,0.824,1.502,1.063,0.453,0.803,0.757,���쐼,5.7,��
2019/01/01,13:40,0.783,1.168,0.824,1.504,1.066,0.454,0.802,0.757,���쐼,7.0,��
2019/01/01,13:50,0.785,1.170,0.823,1.503,1.066,0.455,0.802,0.757,�쐼,8.4,��
2019/01/01,14:00,0.785,1.170,0.824,1.502,1.065,0.454,0.802,0.759,���쐼,5.9,��
2019/01/01,14:10,0.785,1.169,0.824,1.501,1.066,0.455,0.801,0.760,��,8.3,��
2019/01/01,14:20,0.785,1.169,0.824,1.501,1.068,0.454,0.800,0.758,���쐼,5.6,��
2019/01/01,14:30,0.784,1.170,0.826,1.503,1.069,0.455,0.802,0.760,���쐼,5.0,��
2019/01/01,14:40,0.785,1.170,0.824,1.505,1.068,0.455,0.801,0.759,���쐼,4.4,��
2019/01/01,14:50,0.785,1.170,0.824,1.505,1.064,0.455,0.801,0.759,��,5.8,��
2019/01/01,15:00,0.783,1.172,0.825,1.503,1.069,0.454,0.803,0.759,���쐼,7.3,��
2019/01/01,15:10,0.786,1.172,0.823,1.503,1.066,0.454,0.801,0.759,��,7.6,��
2019/01/01,15:20,0.784,1.172,0.821,1.503,1.067,0.454,0.802,0.759,��,5.8,��
2019/01/01,15:30,0.785,1.169,0.823,1.503,1.066,0.455,0.804,0.759,��,5.3,��
2019/01/01,15:40,0.785,1.172,0.824,1.503,1.066,0.454,0.801,0.757,��,5.8,��
2019/01/01,15:50,0.783,1.172,0.824,1.502,1.068,0.454,0.802,0.759,��,4.3,��
2019/01/01,16:00,0.784,1.172,0.824,1.500,1.066,0.453,0.802,0.758,��,2.5,��
2019/01/01,16:10,0.783,1.171,0.822,1.502,1.065,0.453,0.801,0.758,��,2.0,��
2019/01/01,16:20,0.786,1.171,0.823,1.502,1.064,0.454,0.799,0.758,���k��,3.0,��
2019/01/01,16:30,0.782,1.172,0.824,1.501,1.067,0.453,0.801,0.758,���k��,3.7,��
2019/01/01,16:40,0.784,1.168,0.825,1.503,1.066,0.453,0.800,0.757,���k��,3.8,��
2019/01/01,16:50,0.782,1.169,0.824,1.502,1.066,0.453,0.800,0.757,���k��,5.1,��
2019/01/01,17:00,0.784,1.171,0.824,1.502,1.066,0.454,0.800,0.756,��,6.5,��
2019/01/01,17:10,0.784,1.172,0.823,1.500,1.065,0.453,0.800,0.759,��,6.3,��
2019/01/01,17:20,0.783,1.170,0.823,1.504,1.064,0.453,0.801,0.757,���k��,6.4,��
2019/01/01,17:30,0.781,1.172,0.822,1.500,1.064,0.453,0.798,0.757,���k��,5.9,��
2019/01/01,17:40,0.783,1.171,0.823,1.501,1.065,0.453,0.802,0.756,��,4.8,��
2019/01/01,17:50,0.784,1.171,0.822,1.502,1.064,0.454,0.799,0.758,���k��,5.1,��
2019/01/01,18:00,0.782,1.172,0.822,1.500,1.067,0.454,0.802,0.759,���k��,4.9,��
2019/01/01,18:10,0.782,1.171,0.823,1.501,1.064,0.453,0.799,0.758,���k��,4.2,��
2019/01/01,18:20,0.783,1.170,0.823,1.503,1.063,0.453,0.799,0.758,��,1.8,��
2019/01/01,18:30,0.783,1.171,0.823,1.502,1.063,0.452,0.799,0.756,���쐼,0.9,��
2019/01/01,18:40,0.783,1.171,0.822,1.502,1.064,0.452,0.799,0.757,��,2.3,��
2019/01/01,18:50,0.782,1.170,0.821,1.501,1.068,0.452,0.799,0.757,��,3.2,��
2019/01/01,19:00,0.781,1.171,0.822,1.500,1.065,0.452,0.798,0.755,���k��,3.1,��
2019/01/01,19:10,0.782,1.171,0.823,1.501,1.065,0.454,0.799,0.758,�k��,5.0,��
2019/01/01,19:20,0.783,1.172,0.823,1.501,1.064,0.452,0.801,0.756,�k��,5.2,��
2019/01/01,19:30,0.783,1.171,0.824,1.499,1.065,0.451,0.799,0.757,�k��,6.1,��
2019/01/01,19:40,0.784,1.171,0.822,1.498,1.064,0.450,0.798,0.758,�k��,6.4,��
2019/01/01,19:50,0.781,1.172,0.824,1.500,1.064,0.452,0.799,0.756,�k��,6.0,��
2019/01/01,20:00,0.783,1.171,0.823,1.500,1.063,0.453,0.800,0.758,�k��,6.8,��
2019/01/01,20:10,0.783,1.170,0.824,1.500,1.066,0.452,0.801,0.757,�k��,7.8,��
2019/01/01,20:20,0.784,1.171,0.822,1.500,1.065,0.452,0.801,0.758,�k��,7.9,��
2019/01/01,20:30,0.782,1.171,0.822,1.502,1.065,0.453,0.800,0.757,�k��,6.9,��
2019/01/01,20:40,0.782,1.171,0.824,1.501,1.064,0.452,0.799,0.755,�k��,5.5,��
2019/01/01,20:50,0.783,1.171,0.823,1.502,1.064,0.452,0.801,0.757,�k��,5.3,��
2019/01/01,21:00,0.782,1.170,0.823,1.502,1.062,0.453,0.800,0.757,�k��,4.1,��
2019/01/01,21:10,0.783,1.172,0.822,1.502,1.064,0.452,0.800,0.757,�k��,4.6,��
2019/01/01,21:20,0.783,1.168,0.825,1.500,1.065,0.452,0.800,0.757,�k��,4.2,��
2019/01/01,21:30,0.783,1.170,0.825,1.499,1.065,0.453,0.800,0.758,�k�k��,2.8,��
2019/01/01,21:40,0.782,1.170,0.822,1.502,1.065,0.452,0.800,0.757,�k�k��,4.0,��
2019/01/01,21:50,0.783,1.169,0.821,1.500,1.063,0.452,0.798,0.756,�k,3.9,��
2019/01/01,22:00,0.782,1.169,0.822,1.502,1.064,0.451,0.797,0.757,�k,2.9,��
2019/01/01,22:10,0.781,1.169,0.820,1.498,1.065,0.452,0.798,0.756,�k�k��,2.2,��
2019/01/01,22:20,0.779,1.171,0.823,1.498,1.064,0.453,0.798,0.754,�k��,2.6,��
2019/01/01,22:30,0.782,1.171,0.822,1.495,1.064,0.453,0.798,0.756,�k��,2.6,��
2019/01/01,22:40,0.782,1.169,0.821,1.502,1.063,0.451,0.796,0.757,�k��,3.9,��
2019/01/01,22:50,0.782,1.169,0.822,1.500,1.062,0.451,0.798,0.756,�k��,3.8,��
2019/01/01,23:00,0.781,1.169,0.821,1.500,1.063,0.451,0.797,0.756,�k��,4.3,��
2019/01/01,23:10,0.782,1.170,0.819,1.499,1.063,0.451,0.797,0.755,���k��,5.5,��
2019/01/01,23:20,0.783,1.169,0.821,1.500,1.061,0.451,0.797,0.756,���k��,5.7,��
2019/01/01,23:30,0.782,1.171,0.823,1.498,1.064,0.451,0.797,0.756,�k��,4.3,��
2019/01/01,23:40,0.781,1.170,0.821,1.501,1.063,0.451,0.800,0.756,�k��,4.2,��
2019/01/01,23:50,0.781,1.170,0.821,1.498,1.064,0.451,0.798,0.759,���k��,4.5,��
